FW2347 Weather Reports


time (UTC)temp
F
wind
direction
speed
knots
gust
knots
rain 1hr
in
rain 24hr
in
rain mn
in
humidity
%
barometer
mb
20260502163021 63 230 0.0 0.0 0.00 0.00 0.00 60 1018.3
20260502161609 63 234 0.0 0.0 0.00 0.00 0.00 58 1018.5
20260502151522 65 188 0.0 0.0 0.00 0.00 0.00 62 1018.6
20260502123108 63 25 0.0 0.0 0.00 0.00 0.00 70 1020.6
20260502121526 62 42 0.0 0.0 0.00 0.00 0.00 71 1020.8
20260502120121 61 76 0.0 0.0 0.00 0.00 0.00 70 1021.0
20260502114549 60 56 0.0 0.0 0.00 0.00 0.00 65 1021.1
20260502113016 59 74 0.0 0.0 0.00 0.00 0.00 60 1021.4
20260502111611 59 68 0.0 0.0 0.00 0.00 0.00 53 1021.5
20260502110037 59 55 0.0 0.0 0.00 0.00 0.00 49 1021.7
20260502104523 58 53 0.0 0.0 0.00 0.00 0.00 40 1021.8
20260502103054 57 53 0.0 0.0 0.00 0.00 0.00 38 1022.0
20260502101530 57 56 0.0 0.0 0.00 0.00 0.00 40 1022.2
20260502091502 57 65 0.0 0.0 0.00 0.00 0.00 27 1022.3
20260502071516 56 167 0.0 0.0 0.00 0.00 0.00 20 1022.1
20260502070112 55 167 0.0 0.0 0.00 0.00 0.00 20 1022.1
20260502064514 55 167 0.0 0.0 0.00 0.00 0.00 22 1022.0
20260502063102 56 173 0.0 0.0 0.00 0.00 0.00 25 1021.9
20260502061553 55 173 0.0 0.0 0.00 0.00 0.00 32 1021.8
20260502060024 55 173 0.0 0.0 0.00 0.00 0.00 39 1021.8
20260502054504 55 173 0.0 0.0 0.00 0.00 0.00 47 1021.7
20260502053100 55 173 0.0 0.0 0.00 0.00 0.00 50 1021.5
20260502051600 55 173 0.0 0.0 0.00 0.00 0.00 50 1021.4
20260502050046 55 173 0.0 0.0 0.00 0.00 0.00 52 1021.3
20260502044531 56 173 0.0 0.0 0.00 0.00 0.00 56 1021.3
20260502043029 56 173 0.0 0.0 0.00 0.00 0.00 58 1021.2
20260502041506 56 173 0.0 0.0 0.00 0.00 0.00 58 1021.2
20260502040038 56 180 0.0 0.0 0.00 0.00 0.00 57 1021.3
20260502034522 55 180 0.0 0.0 0.00 0.00 0.00 54 1021.4
20260502033050 55 179 0.0 0.0 0.00 0.00 0.00 53 1021.5
20260502031524 56 180 0.0 0.0 0.00 0.00 0.00 55 1021.5
20260502030006 56 180 0.0 0.0 0.00 0.00 0.00 57 1021.6
20260502024553 55 180 0.0 0.0 0.00 0.00 0.00 55 1021.7
20260502023031 55 180 0.0 0.0 0.00 0.00 0.00 53 1021.7
20260502021507 55 179 0.0 0.0 0.00 0.00 0.00 53 1022.0
20260502020047 55 180 0.0 0.0 0.00 0.00 0.00 51 1022.0
20260502014529 55 180 0.0 0.0 0.00 0.00 0.00 48 1022.1
20260502013105 55 180 0.0 0.0 0.00 0.00 0.00 44 1022.1
20260502011520 54 179 0.0 0.0 0.00 0.00 0.00 38 1022.2
20260502010051 54 180 0.0 0.0 0.00 0.00 0.00 33 1022.4
20260502004532 54 179 0.0 0.0 0.00 0.00 0.00 31 1022.6
20260502003019 54 180 0.0 0.0 0.00 0.00 0.00 32 1022.8
20260502001509 54 180 0.0 0.0 0.00 0.00 0.00 32 1022.8
20260502000029 53 179 0.0 0.0 0.00 0.00 0.00 31 1023.1
20260501234513 53 180 0.0 0.0 0.00 0.00 0.00 33 1022.9
20260501233040 52 180 0.0 0.0 0.00 0.00 0.00 37 1023.1
20260501231524 52 180 0.0 0.0 0.00 0.00 0.00 38 1023.2
20260501224528 52 184 0.0 0.0 0.00 0.00 0.00 43 1022.9
20260501223105 51 186 0.0 0.0 0.00 0.00 0.00 50 1022.7